EW2345 Weather Reports


Display with metric or nautical units.
time (UTC)temp
F
wind
direction
speed
MPH
gust
MPH
rain 1hr
in
rain 24hr
in
rain mn
in
humidity
%
barometer
mb
20240530010449 63 80 2.0 7.0 0.00 0.00 0.00 82 1016.3
20240530005950 64 82 3.0 6.0 0.00 0.00 0.00 81 1016.4
20240530005450 64 82 3.0 6.0 0.00 0.00 0.00 81 1016.5
20240530003949 65 44 1.0 3.0 0.00 0.00 0.00 79 1016.6
20240530003450 65 44 2.0 3.0 0.00 0.00 0.00 79 1016.6
20240530002450 65 38 5.0 9.0 0.00 0.00 0.00 79 1016.6
20240530001950 65 41 4.0 9.0 0.00 0.00 0.00 78 1016.6
20240530001450 65 42 4.0 12.0 0.00 0.00 0.00 78 1016.7
20240530000949 65 47 6.0 13.0 0.00 0.00 0.00 78 1016.9
20240530000449 66 56 6.0 14.0 0.00 0.00 0.00 77 1016.8
20240529235950 66 44 7.0 14.0 0.00 0.00 0.00 77 1016.8
20240529234949 66 39 7.0 12.0 0.00 0.00 0.00 77 1016.8
20240529234450 66 45 7.0 12.0 0.00 0.00 0.00 77 1016.9
20240529233949 66 40 7.0 14.0 0.00 0.00 0.00 76 1016.9
20240529233450 66 44 7.0 12.0 0.00 0.00 0.00 76 1016.9
20240529232950 66 44 8.0 13.0 0.00 0.00 0.00 76 1017.0
20240529232450 66 43 6.0 9.0 0.00 0.00 0.00 76 1017.0
20240529231449 66 52 5.0 8.0 0.00 0.00 0.00 76 1017.1
20240529230449 67 40 7.0 13.0 0.00 0.00 0.00 74 1017.1
20240529225950 67 42 7.0 10.0 0.00 0.00 0.00 74 1017.1
20240529225450 67 40 6.0 10.0 0.00 0.00 0.00 73 1017.0
20240529224950 68 48 6.0 8.0 0.00 0.00 0.00 73 1017.1
20240529223450 68 47 6.0 12.0 0.00 0.00 0.00 72 1017.1
20240529222951 68 66 6.0 9.0 0.00 0.00 0.00 72 1017.2
20240529222449 68 47 6.0 12.0 0.00 0.00 0.00 72 1017.2
20240529220950 68 59 4.0 12.0 0.00 0.00 0.00 73 1017.3
20240529220450 68 73 4.0 8.0 0.00 0.00 0.00 72 1017.3
20240529215950 68 79 4.0 8.0 0.00 0.00 0.00 72 1017.4
20240529214949 69 67 3.0 8.0 0.00 0.00 0.00 71 1017.5
20240529214450 69 73 3.0 6.0 0.00 0.00 0.00 71 1017.4
20240529213950 69 69 3.0 6.0 0.00 0.00 0.00 70 1017.4
20240529213449 69 71 2.0 7.0 0.00 0.00 0.00 69 1017.4
20240529212951 70 75 2.0 5.0 0.00 0.00 0.00 69 1017.4
20240529212449 70 62 2.0 6.0 0.00 0.00 0.00 68 1017.4
20240529211949 70 57 1.0 3.0 0.00 0.00 0.00 67 1017.3
20240529211450 71 57 1.0 7.0 0.00 0.00 0.00 67 1017.2
20240529210949 71 68 5.0 9.0 0.00 0.00 0.00 65 1017.2
20240529210449 71 55 4.0 10.0 0.00 0.00 0.00 65 1017.2
20240529205950 71 45 6.0 12.0 0.00 0.00 0.00 65 1017.2
20240529205450 71 41 4.0 12.0 0.00 0.00 0.00 64 1017.2
20240529204950 71 60 5.0 10.0 0.00 0.00 0.00 64 1017.1
20240529204449 72 53 3.0 8.0 0.00 0.00 0.00 63 1017.1
20240529202951 73 80 5.0 13.0 0.00 0.00 0.00 62 1016.9
20240529202449 73 81 4.0 7.0 0.00 0.00 0.00 62 1016.9
20240529201949 73 83 5.0 10.0 0.00 0.00 0.00 62 1016.8
20240529201449 73 57 7.0 15.0 0.00 0.00 0.00 61 1016.9
20240529200950 73 49 2.0 7.0 0.00 0.00 0.00 62 1016.8
20240529200450 74 47 5.0 12.0 0.00 0.00 0.00 61 1016.9
20240529195950 74 74 4.0 9.0 0.00 0.00 0.00 61 1016.9
20240529195449 74 52 7.0 13.0 0.00 0.00 0.00 60 1016.8
20240529194449 75 58 6.0 12.0 0.00 0.00 0.00 61 1016.8
20240529193949 75 34 6.0 12.0 0.00 0.00 0.00 61 1016.8
20240529193450 75 39 6.0 12.0 0.00 0.00 0.00 60 1016.9
20240529192951 75 39 6.0 12.0 0.00 0.00 0.00 61 1016.8
20240529192450 76 38 7.0 13.0 0.00 0.00 0.00 60 1016.7
20240529191949 76 37 7.0 13.0 0.00 0.00 0.00 60 1016.7
20240529191449 76 38 10.0 18.0 0.00 0.00 0.00 59 1016.7
20240529190449 77 38 9.0 15.0 0.00 0.00 0.00 59 1016.6
20240529185950 77 35 12.0 20.0 0.00 0.00 0.00 59 1016.6
20240529185449 77 38 10.0 18.0 0.00 0.00 0.00 59 1016.5
20240529184949 77 27 10.0 18.0 0.00 0.00 0.00 60 1016.4
20240529184449 78 27 9.0 15.0 0.00 0.00 0.00 59 1016.5
20240529183950 78 30 11.0 16.0 0.00 0.00 0.00 59 1016.5
20240529183450 78 42 11.0 15.0 0.00 0.00 0.00 59 1016.5
20240529182951 78 36 7.0 15.0 0.00 0.00 0.00 58 1016.4
20240529182449 78 38 10.0 15.0 0.00 0.00 0.00 59 1016.3
20240529180949 79 38 6.0 16.0 0.00 0.00 0.00 59 1016.2
20240529180449 80 36 7.0 16.0 0.00 0.00 0.00 58 1016.2
20240529175950 80 61 6.0 14.0 0.00 0.00 0.00 58 1016.1
20240529175450 80 33 6.0 12.0 0.00 0.00 0.00 58 1016.1
20240529174949 80 13 6.0 12.0 0.00 0.00 0.00 58 1016.1
20240529174449 80 45 6.0 14.0 0.00 0.00 0.00 57 1016.1
20240529173950 80 54 9.0 14.0 0.00 0.00 0.00 57 1016.1
20240529173450 80 39 11.0 18.0 0.00 0.00 0.00 57 1016.1
20240529172950 80 65 6.0 13.0 0.00 0.00 0.00 56 1016.1
20240529172450 81 34 7.0 13.0 0.00 0.00 0.00 56 1016.1
20240529171950 80 20 9.0 14.0 0.00 0.00 0.00 54 1016.1
20240529171449 81 15 9.0 14.0 0.00 0.00 0.00 55 1016.1
20240529170950 81 43 6.0 12.0 0.00 0.00 0.00 54 1016.1
20240529165950 81 54 5.0 12.0 0.00 0.00 0.00 54 1016.2
20240529165450 81 38 5.0 9.0 0.00 0.00 0.00 54 1016.1
20240529164949 81 49 5.0 12.0 0.00 0.00 0.00 53 1016.2
20240529164450 81 53 6.0 13.0 0.00 0.00 0.00 53 1016.2
20240529163950 82 44 7.0 15.0 0.00 0.00 0.00 53 1016.2
20240529163449 82 39 9.0 14.0 0.00 0.00 0.00 52 1016.2
20240529162950 82 53 10.0 18.0 0.00 0.00 0.00 52 1016.2
20240529162450 82 38 7.0 16.0 0.00 0.00 0.00 52 1016.2
20240529161949 82 48 5.0 12.0 0.00 0.00 0.00 52 1016.2
20240529161450 82 40 7.0 14.0 0.00 0.00 0.00 51 1016.2
20240529160949 82 38 5.0 10.0 0.00 0.00 0.00 50 1016.2
20240529160449 82 38 6.0 12.0 0.00 0.00 0.00 50 1016.3
20240529155950 82 51 6.0 9.0 0.00 0.00 0.00 52 1016.3
20240529154950 82 46 6.0 12.0 0.00 0.00 0.00 51 1016.4
20240529154449 82 36 9.0 13.0 0.00 0.00 0.00 51 1016.4
20240529153950 82 29 8.0 14.0 0.00 0.00 0.00 48 1016.4
20240529153450 82 38 7.0 12.0 0.00 0.00 0.00 48 1016.4
20240529152950 82 39 7.0 14.0 0.00 0.00 0.00 48 1016.5
20240529152449 82 35 9.0 14.0 0.00 0.00 0.00 48 1016.5
20240529151950 83 38 6.0 12.0 0.00 0.00 0.00 47 1016.6
20240529151450 83 71 5.0 12.0 0.00 0.00 0.00 47 1016.6
20240529150949 82 34 6.0 12.0 0.00 0.00 0.00 45 1016.5
20240529145950 83 76 6.0 12.0 0.00 0.00 0.00 45 1016.6
20240529145449 82 40 9.0 13.0 0.00 0.00 0.00 45 1016.7
20240529144949 82 40 5.0 12.0 0.00 0.00 0.00 44 1016.7
20240529144449 83 31 5.0 9.0 0.00 0.00 0.00 43 1016.7
20240529143950 83 63 5.0 13.0 0.00 0.00 0.00 42 1016.7
20240529143449 83 77 5.0 12.0 0.00 0.00 0.00 44 1016.7
20240529142950 83 33 8.0 13.0 0.00 0.00 0.00 44 1016.7
20240529142449 82 46 6.0 12.0 0.00 0.00 0.00 42 1016.8
20240529141949 83 58 3.0 9.0 0.00 0.00 0.00 42 1016.9
20240529140950 83 31 3.0 9.0 0.00 0.00 0.00 41 1017.0
20240529140449 83 37 5.0 10.0 0.00 0.00 0.00 40 1017.1
20240529135951 82 36 8.0 12.0 0.00 0.00 0.00 40 1017.1
20240529135449 82 37 7.0 10.0 0.00 0.00 0.00 38 1017.2
20240529134949 82 52 4.0 7.0 0.00 0.00 0.00 36 1017.3
20240529134449 82 44 6.0 12.0 0.00 0.00 0.00 36 1017.3
20240529133950 82 83 3.0 8.0 0.00 0.00 0.00 34 1017.3
20240529133449 83 38 5.0 9.0 0.00 0.00 0.00 32 1017.5
20240529132950 82 47 4.0 8.0 0.00 0.00 0.00 29 1017.4
20240529132450 82 64 5.0 9.0 0.00 0.00 0.00 31 1017.5
20240529131950 82 42 7.0 12.0 0.00 0.00 0.00 30 1017.6
20240529131449 83 79 3.0 8.0 0.00 0.00 0.00 29 1017.6
20240529130950 83 47 3.0 8.0 0.00 0.00 0.00 28 1017.7
20240529130450 82 79 5.0 8.0 0.00 0.00 0.00 27 1017.7
20240529125950 82 62 3.0 8.0 0.00 0.00 0.00 26 1017.7
20240529125450 82 44 4.0 8.0 0.00 0.00 0.00 25 1017.8
20240529124949 81 54 5.0 10.0 0.00 0.00 0.00 26 1017.9
20240529124449 81 46 6.0 12.0 0.00 0.00 0.00 26 1018.0
20240529123949 81 48 8.0 13.0 0.00 0.00 0.00 25 1018.1
20240529123450 81 44 7.0 13.0 0.00 0.00 0.00 29 1018.0
20240529122951 81 37 7.0 12.0 0.00 0.00 0.00 28 1018.1
20240529121450 80 47 5.0 15.0 0.00 0.00 0.00 29 1018.2
20240529120949 80 43 5.0 10.0 0.00 0.00 0.00 28 1018.3
20240529115951 80 56 4.0 10.0 0.00 0.00 0.00 32 1018.4
20240529115450 80 51 5.0 10.0 0.00 0.00 0.00 32 1018.4
20240529114950 80 51 7.0 13.0 0.00 0.00 0.00 29 1018.5
20240529114449 79 36 7.0 14.0 0.00 0.00 0.00 31 1018.5
20240529113449 79 60 5.0 10.0 0.00 0.00 0.00 36 1018.6
20240529112950 79 41 5.0 8.0 0.00 0.00 0.00 35 1018.6
20240529112450 79 47 4.0 9.0 0.00 0.00 0.00 37 1018.6
20240529111950 79 71 5.0 10.0 0.00 0.00 0.00 36 1018.7
20240529111450 79 57 6.0 10.0 0.00 0.00 0.00 38 1018.7
20240529110949 79 75 6.0 12.0 0.00 0.00 0.00 37 1018.7
20240529110449 78 70 5.0 9.0 0.00 0.00 0.00 37 1018.8
20240529105950 78 86 5.0 10.0 0.00 0.00 0.00 40 1018.8
20240529105450 77 55 6.0 9.0 0.00 0.00 0.00 39 1018.8
20240529104950 78 53 5.0 9.0 0.00 0.00 0.00 41 1018.8
20240529103449 76 44 3.0 8.0 0.00 0.00 0.00 43 1018.9
20240529102951 77 59 6.0 12.0 0.00 0.00 0.00 41 1018.9
20240529102450 77 64 6.0 14.0 0.00 0.00 0.00 42 1018.9
20240529101950 76 33 6.0 12.0 0.00 0.00 0.00 43 1019.0
20240529101450 76 56 5.0 12.0 0.00 0.00 0.00 44 1018.9
20240529100950 76 65 6.0 12.0 0.00 0.00 0.00 46 1018.9
20240529100450 75 66 5.0 13.0 0.00 0.00 0.00 47 1019.0
20240529095951 74 33 9.0 14.0 0.00 0.00 0.00 45 1019.1
20240529094449 73 38 7.0 12.0 0.00 0.00 0.00 51 1019.0
20240529093949 73 36 6.0 12.0 0.00 0.00 0.00 54 1019.0
20240529093449 73 27 7.0 10.0 0.00 0.00 0.00 55 1019.0
20240529092950 72 22 7.0 9.0 0.00 0.00 0.00 58 1019.0
20240529092450 72 38 4.0 7.0 0.00 0.00 0.00 59 1019.0
20240529091950 72 39 3.0 9.0 0.00 0.00 0.00 59 1019.0
20240529091450 72 40 4.0 9.0 0.00 0.00 0.00 58 1019.0
20240529090950 72 39 3.0 9.0 0.00 0.00 0.00 62 1019.1
20240529090449 72 55 2.0 9.0 0.00 0.00 0.00 62 1019.2
20240529085951 71 59 3.0 8.0 0.00 0.00 0.00 62 1019.2
20240529085450 70 42 2.0 7.0 0.00 0.00 0.00 64 1019.3
20240529084949 70 43 4.0 8.0 0.00 0.00 0.00 65 1019.3
20240529083950 69 37 6.0 10.0 0.00 0.00 0.00 66 1019.4
20240529083449 68 41 6.0 10.0 0.00 0.00 0.00 67 1019.4
20240529082950 68 36 6.0 12.0 0.00 0.00 0.00 66 1019.5
20240529081949 67 50 4.0 9.0 0.00 0.00 0.00 69 1019.5
20240529081450 67 58 2.0 7.0 0.00 0.00 0.00 70 1019.5
20240529080949 67 61 2.0 6.0 0.00 0.00 0.00 70 1019.6
20240529075950 66 57 2.0 6.0 0.00 0.00 0.00 69 1019.5
20240529075449 65 55 2.0 7.0 0.00 0.00 0.00 73 1019.6
20240529074449 65 47 1.0 3.0 0.00 0.00 0.00 73 1019.4
20240529073950 64 46 1.0 3.0 0.00 0.00 0.00 76 1019.5
20240529073450 65 46 0.0 3.0 0.00 0.00 0.00 76 1019.5
20240529072950 64 46 1.0 3.0 0.00 0.00 0.00 81 1019.5
20240529072450 64 42 1.0 2.0 0.00 0.00 0.00 81 1019.6
20240529071950 64 42 1.0 3.0 0.00 0.00 0.00 81 1019.5
20240529070950 63 42 0.0 2.0 0.00 0.00 0.00 83 1019.5
20240529070449 62 42 1.0 2.0 0.00 0.00 0.00 83 1019.5
20240529065950 61 42 0.0 2.0 0.00 0.00 0.00 85 1019.5
20240529065450 60 41 0.0 1.0 0.00 0.00 0.00 86 1019.6
20240529064950 60 42 0.0 1.0 0.00 0.00 0.00 87 1019.6
20240529064450 59 41 0.0 2.0 0.00 0.00 0.00 88 1019.7
20240529063950 59 41 0.0 2.0 0.00 0.00 0.00 88 1019.7
20240529063450 58 41 1.0 3.0 0.00 0.00 0.00 88 1019.7
20240529062449 57 41 0.0 1.0 0.00 0.00 0.00 90 1019.6
20240529061949 57 41 1.0 3.0 0.00 0.00 0.00 91 1019.6
20240529060949 56 41 1.0 5.0 0.00 0.00 0.00 93 1019.5
20240529055951 56 41 1.0 3.0 0.00 0.00 0.00 96 1019.5
20240529055450 55 41 1.0 3.0 0.00 0.00 0.00 96 1019.5
20240529054949 55 41 1.0 2.0 0.00 0.00 0.00 97 1019.5
20240529054450 54 41 1.0 2.0 0.00 0.00 0.00 96 1019.5
20240529053950 54 41 1.0 3.0 0.00 0.00 0.00 97 1019.5
20240529053449 53 41 1.0 2.0 0.00 0.00 0.00 96 1019.4
20240529052950 53 41 0.0 0.0 0.00 0.00 0.00 96 1019.3
20240529051949 53 41 0.0 0.0 0.00 0.00 0.00 95 1019.3
20240529051449 53 41 0.0 1.0 0.00 0.00 0.00 95 1019.3
20240529050949 53 41 1.0 3.0 0.00 0.00 0.00 95 1019.3
20240529045950 54 41 0.0 2.0 0.00 0.00 0.00 95 1019.2
20240529045449 54 41 1.0 3.0 0.00 0.00 0.00 94 1019.2
20240529044949 54 41 0.0 1.0 0.00 0.00 0.00 94 1019.2
20240529043950 54 41 0.0 0.0 0.00 0.00 0.00 94 1019.3
20240529043450 54 41 0.0 2.0 0.00 0.00 0.00 94 1019.2
20240529042951 54 41 1.0 2.0 0.00 0.00 0.00 94 1019.2
20240529042450 54 41 1.0 2.0 0.00 0.00 0.00 94 1019.2
20240529041949 54 41 1.0 2.0 0.00 0.00 0.00 94 1019.1
20240529041449 54 41 1.0 2.0 0.00 0.00 0.00 94 1019.2
20240529040949 55 41 1.0 2.0 0.00 0.00 0.00 94 1019.1
20240529035951 55 41 1.0 2.0 0.00 0.00 0.00 94 1019.1
20240529035450 55 41 0.0 2.0 0.00 0.00 0.00 94 1019.2
20240529035047 55 41 0.0 1.0 0.00 0.00 0.00 93 1019.3
20240529034843 55 41 1.0 2.0 0.00 0.00 0.00 93 1019.3
20240529033822 55 41 2.0 5.0 0.00 0.00 0.00 93 1019.4
20240529030449 56 41 0.0 1.0 0.00 0.00 0.00 93 1019.3
20240529022539 57 41 2.0 3.0 0.00 0.00 0.00 92 1019.5
20240529020618 58 41 0.0 0.0 0.00 0.00 0.00 92 1019.5
20240529013751 58 41 1.0 2.0 0.00 0.00 0.00 91 1019.6
20240529012345 59 41 1.0 2.0 0.00 0.00 0.00 91 1019.6